Weather in Stantsionno-Oyashinskiy

Russia / Novosibirsk Oblast     55°27′54″N   83°49′20″E
temp.,
°C
wind,
m/s
gust,
m/s
humid.,
%
clouds,
%
prec.,
mm/h
press.,
hPa
HPBL,
m
28 february, sun
sun2801:00−28sw359978 0.0 103879
04:00−30ssw349871 0.0 103862
07:00−31ssw349766 0.0 103948
10:00−28s369656 0.0 1038173
13:00−22sse359467 0.0 1035294
16:00−17sse468879 0.0 1033456
19:00−18ese349589 0.0 103062
22:00−17se4796100 0.1 1027177
1 march, mon
mon101:00−15ese3796100 0.3 1024168
04:00−13ese4895100 0.2 1021202
07:00−11ese4895100 0.7 1017260
10:00−9ese5894100 0.9 1014360
13:00−6ese5795100 1.7 1011515
16:00−4e6996100 2.3 1008527
19:00−5ne71195100 5.9 1008389
22:00−9ne61095100 1.3 1007356
2 march, tue
tue201:00−11nne4895100 1.8 1009336
04:00−14nne479598 0.1 1011260
07:00−18nne339896 0.1 101446
10:00−18ne239784 0.0 1016115
13:00−14n009089 0.1 1017301
16:00−12w1187100 0.2 1017407
19:00−13ene1196100 0.4 101820
22:00−15ese2296100 0.2 101821
3 march, wed
wed301:00−15se229691 0.3 101720
04:00−15se119697 0.1 101620
07:00−16ese129695 0.2 101620
10:00−13ene119598 0.1 101688
13:00−10e118998 0.3 1017314
16:00−9ese0088100 0.2 1017324
19:00−11ssw019799 0.4 101921
22:00−13wsw339697 0.3 102155
4 march, thu
thu401:00−16sw369797 0.3 102397
04:00−18ssw349772 0.0 102376
07:00−20s479758 0.0 102592
10:00−18s599346 0.0 1024254
13:00−12sse599165 0.0 1023395
16:00−8s61089100 0.0 1021621
19:00−8sse51191100 0.0 1020485
22:00−9s51488100 0.0 1018458